[[{"header":{"parameterUnit":"m.s-1","parameterCategory":2,"la1":30.2991,"la2":30.254,"lo1":-89.0895,"lo2":-89.0444,"dy":0.0017,"dx":0.0017,"nx":28,"ny":28,"refTime":"2025-05-29T21:00:00:Z","depth":"0","parameterNumber":2,"parameterNumberName":"U-component_of_CURRENTS"},"data":[0,0,0,0,0,0,0,0,0,0,0,0,0,0,0,0,0,0,0,0,0,0,0,0,0,0,0,0,0,0,0,0,0,0,0,0,0,0,0,0,0,0,0,0,0,0,0,0,0,0,0,0,0,0,0,0,0,0,0.344,0.3441,0,0.3544,0.3545,0.3546,0.3553,0.3552,0.3551,0.355,0.3574,0.3575,0.3577,0,0,0,0,0,0,0,0,0,0,0,0,0,0.3301,0.3303,0.3439,0.3441,0.3443,0.3544,0.3545,0.3546,0.3553,0.3552,0.3551,0.355,0.3573,0.3575,0.3577,0,0,0,0,0,0,0,0,0,0,0,0,0,0.3376,0.3303,0.3439,0.346,0.3463,0.3544,0.3545,0.3547,0.3553,0.3552,0.355,0.3549,0.3573,0.3575,0.3577,0.3619,0,0,0.3584,0.3585,0,0,0,0,0,0,0,0,0.3372,0.3381,0.3455,0.3459,0.3462,0.3536,0.3505,0.3568,0.3554,0.3516,0.355,0.3548,0.3556,0.356,0.358,0.362,0.3621,0.3584,0.3586,0.3587,0.3587,0,0,0,0,0,0,0,0.3366,0.3377,0.3478,0.3457,0.3462,0.3483,0.3491,0.3517,0.354,0.352,0.3521,0.3537,0.3557,0.3578,0.3581,0.3622,0.3584,0.3586,0.3588,0.3588,0.3728,0.373,0,0,0,0,0,0,0.3358,0.3372,0.3475,0.3482,0.3416,0.3487,0.3496,0.3512,0.3541,0.3546,0.3538,0.3537,0.3575,0.3578,0.3581,0.3646,0.3587,0.3589,0.359,0.3726,0.3729,0.3731,0,0,0,0,0,0,0.3354,0.3366,0.3471,0.3431,0.3446,0.349,0.3508,0.3515,0.3537,0.3557,0.3559,0.3554,0.3574,0.3578,0.3611,0.3646,0.359,0.3592,0.3723,0.3727,0.373,0.3766,0,0,0,0,0,0,0.335,0.3364,0.3373,0.343,0.3448,0.3526,0.351,0.3518,0.3551,0.355,0.3571,0.3572,0.3573,0.3608,0.3614,0.3648,0.3593,0.372,0.3725,0.3729,0.3762,0.3771,0.3778,0,0,0,0,0,0.3345,0.3366,0.3373,0.3386,0.3459,0.3528,0.3539,0.3563,0.3553,0.3575,0.3585,0.3571,0.364,0.3612,0.3618,0.3653,0.3718,0.3723,0.3728,0.3759,0.3769,0.3778,0,0,0,0,0,0,0.3309,0.3371,0.3379,0.3417,0.347,0.3529,0.3555,0.357,0.3599,0.3593,0.3596,0.3599,0.3651,0.365,0.3618,0.3711,0.368,0.3687,0.3701,0.3711,0.3719,0.3745,0.3595,0,0,0,0,0,0.3307,0.334,0.3401,0.3433,0.3459,0.3507,0.3536,0.3558,0.3593,0.3605,0.3622,0.3645,0.3682,0.369,0.3726,0.3765,0.3842,0.3797,0.3804,0.3811,0.384,0.4031,0.4059,0.3749,0.3748,0.3748,0,0,0.3305,0.3342,0.3362,0.3428,0.3468,0.3519,0.3521,0.3575,0.3616,0.3603,0.3656,0.368,0.3703,0.3756,0.3778,0.3752,0.3931,0.3818,0.3822,0.3849,0.404,0.407,0.4098,0.3752,0.3751,0.3751,0,0,0.3324,0.3349,0.3385,0.343,0.3496,0.3533,0.3549,0.3616,0.3642,0.3698,0.3707,0.3755,0.3794,0.3831,0.3849,0.3926,0.3979,0.3929,0.3976,0.416,0.4188,0.4213,0.4313,0.4347,0.3918,0.3919,0.3919,0,0.3318,0.3381,0.3408,0.3453,0.3506,0.3538,0.3601,0.3632,0.3701,0.375,0.3718,0.3846,0.3841,0.3939,0.3947,0.3946,0.4039,0.3928,0.4173,0.42,0.4226,0.4322,0.436,0.3921,0.3921,0.392,0.392,0,0.3375,0.3422,0.3451,0.3521,0.3567,0.3637,0.3685,0.3736,0.3766,0.3814,0.3925,0.3944,0.403,0.4022,0.3992,0.4163,0.4164,0.4173,0.4149,0.426,0.4353,0.4391,0.3924,0.3923,0.3923,0.3922,0,0,0.3389,0.3479,0.3488,0.3546,0.3624,0.3679,0.3743,0.385,0.3928,0.3973,0.4099,0.4131,0.4165,0.4191,0.4187,0.4296,0.4506,0.4298,0.4307,0.4396,0.4885,0.4808,0.4842,0.4578,0.4586,0.4592,0.4863,0,0.3446,0.3548,0.3575,0.3684,0.3759,0.3806,0.3876,0.3957,0.4026,0.4143,0.4191,0.4296,0.4223,0.4276,0.4382,0.4497,0.4617,0.4429,0.4766,0.4775,0.4696,0.4889,0.4717,0.494,0.4901,0.4907,0.4912,0,0.3519,0.3582,0.3696,0.3817,0.3852,0.3904,0.4061,0.4127,0.4261,0.4318,0.4427,0.4477,0.4619,0.4551,0.4833,0.4728,0.4818,0.4884,0.4898,0.485,0.4774,0.4833,0.5012,0.4824,0.4971,0.4967,0.4962,0,0.3572,0.3682,0.3786,0.3826,0.3942,0.4003,0.4069,0.4191,0.4265,0.4445,0.453,0.4712,0.4814,0.4993,0.5078,0.5012,0.5389,0.5326,0.534,0.5332,0.5263,0.5237,0.5306,0.5574,0.5574,0.5573,0.5572,0,0.3658,0.3743,0.3816,0.3874,0.3982,0.4056,0.4181,0.4265,0.4406,0.4503,0.4627,0.474,0.4945,0.5135,0.5211,0.5401,0.5523,0.541,0.5441,0.5261,0.5233,0.5125,0.5017,0.5583,0.5581,0.5579,0.5577,0,0.3708,0.3769,0.3874,0.398,0.4007,0.4079,0.4181,0.4268,0.4419,0.4557,0.4621,0.484,0.5087,0.5258,0.5551,0.5568,0.5597,0.5775,0.5497,0.5489,0.5281,0.5181,0.5181,0.5029,0.5869,0.587,0.587,0,0.3759,0.382,0.39,0.392,0.3959,0.4052,0.41,0.4242,0.4318,0.4582,0.4644,0.4934,0.5084,0.5478,0.5614,0.5823,0.5606,0.5748,0.5584,0.5303,0.5218,0.4989,0.4843,0.5495,0.5492,0.549,0.5488,0,0.381,0.3823,0.3859,0.3896,0.3933,0.3981,0.4064,0.4125,0.43,0.4429,0.4609,0.4772,0.5148,0.5302,0.5588,0.5671,0.5448,0.5704,0.5542,0.5056,0.4695,0.4548,0.5213,0.5468,0.547,0.5471,0.5472,0.5473,0.3789,0.3797,0.3806,0.383,0.386,0.3875,0.3864,0.3972,0.4066,0.4212,0.4462,0.4646,0.4984,0.5361,0.5409,0.5358,0.5312,0.5227,0.5169,0.4993,0.4721,0.5292,0.5489,0.5491,0.5493,0.5495,0.5496,0,0.371,0.3711,0.3739,0.3717,0.3687,0.3748,0.3792,0.3756,0.3785,0.4026,0.4167,0.4488,0.4687,0.4901,0.5013,0.4861,0.4655,0.4715,0.4359,0.4273,0.4931,0.4783,0.4679,0.4679,0.4679,0.4679,0.4679,0.468,0.3657,0.3616,0.3624,0.3527,0.3512,0.341,0.3393,0.338,0.3497,0.3617,0.3775,0.4037,0.4377,0.4601,0.4495,0.4399,0.402,0.3885,0.3831,0.4277,0.4317,0.4356,0.4192,0.3965,0.3965,0.3018,0.3011,0.3005]},{"header":{"parameterUnit":"m.s-1","parameterCategory":2,"la1":30.2991,"la2":30.254,"lo1":-89.0895,"lo2":-89.0444,"dy":0.0017,"dx":0.0017,"nx":28,"ny":28,"refTime":"2025-05-29T21:00:00:Z","depth":"0","parameterNumber":3,"parameterNumberName":"V-component_of_CURRENTS"},"data":[0,0,0,0,0,0,0,0,0,0,0,0,0,0,0,0,0,0,0,0,0,0,0,0,0,0,0,0,0,0,0,0,0,0,0,0,0,0,0,0,0,0,0,0,0,0,0,0,0,0,0,0,0,0,0,0,0,0,-0.006,-0.0062,0,-0.018,-0.0181,-0.0183,-0.0257,-0.0257,-0.0257,-0.0257,-0.0406,-0.041,-0.0414,0,0,0,0,0,0,0,0,0,0,0,0,0,0.0016,0.0016,-0.006,-0.0062,-0.0063,-0.0179,-0.0181,-0.0183,-0.0257,-0.0257,-0.0257,-0.0257,-0.0405,-0.041,-0.0414,0,0,0,0,0,0,0,0,0,0,0,0,0,-0.0053,0.0016,-0.006,-0.0112,-0.0118,-0.0179,-0.0181,-0.0184,-0.0257,-0.0257,-0.0257,-0.0258,-0.0404,-0.0409,-0.0415,-0.0443,0,0,-0.0432,-0.0434,0,0,0,0,0,0,0,0,-0.0049,-0.0056,-0.0103,-0.0109,-0.0115,-0.0202,-0.0209,-0.0271,-0.0256,-0.0206,-0.0257,-0.0258,-0.0339,-0.035,-0.0374,-0.045,-0.0456,-0.0432,-0.0436,-0.0438,-0.044,0,0,0,0,0,0,0,-0.0044,-0.0052,-0.0109,-0.0105,-0.0112,-0.016,-0.0169,-0.0222,-0.0271,-0.021,-0.0216,-0.0226,-0.0343,-0.0369,-0.0378,-0.0458,-0.0432,-0.0437,-0.0441,-0.0443,-0.0601,-0.0602,0,0,0,0,0,0,-0.002,-0.0046,-0.0106,-0.0113,-0.008,-0.016,-0.0171,-0.0175,-0.027,-0.0284,-0.0225,-0.0229,-0.0359,-0.0372,-0.0384,-0.0416,-0.0438,-0.0444,-0.0447,-0.06,-0.0601,-0.0602,0,0,0,0,0,0,-0.0018,-0.0024,-0.0101,-0.0081,-0.0094,-0.016,-0.0165,-0.0177,-0.0203,-0.0281,-0.0296,-0.0237,-0.036,-0.0376,-0.0436,-0.0423,-0.0446,-0.0451,-0.0599,-0.06,-0.0601,-0.0486,0,0,0,0,0,0,-0.0015,-0.0023,-0.0017,-0.0079,-0.0094,-0.0132,-0.0165,-0.018,-0.0208,-0.0213,-0.0296,-0.031,-0.0361,-0.0427,-0.0441,-0.0431,-0.0456,-0.0598,-0.06,-0.0601,-0.0488,-0.0483,-0.0478,0,0,0,0,0,-0.0012,-0.0001,-0.0016,-0.0023,-0.0084,-0.0132,-0.0144,-0.0194,-0.0207,-0.0218,-0.0278,-0.0308,-0.0447,-0.0432,-0.0449,-0.044,-0.0597,-0.0599,-0.0601,-0.0491,-0.0484,-0.0478,0,0,0,0,0,0,0.0036,-0.0009,-0.0027,-0.0029,-0.0074,-0.0144,-0.0153,-0.0187,-0.0242,-0.0245,-0.0318,-0.0337,-0.0388,-0.0437,-0.0419,-0.0495,-0.0527,-0.0533,-0.0438,-0.0432,-0.0427,-0.0328,-0.046,0,0,0,0,0,0.0051,0.0047,-0.0008,-0.001,-0.0026,-0.0087,-0.0111,-0.0145,-0.0201,-0.0225,-0.0286,-0.0352,-0.0409,-0.0437,-0.0502,-0.0537,-0.05,-0.0546,-0.0541,-0.0535,-0.047,-0.0391,-0.0369,-0.0608,-0.0608,-0.0608,0,0,0.0068,0.0045,0.0041,-0.0,-0.0036,-0.0049,-0.0102,-0.0131,-0.0141,-0.0232,-0.0267,-0.0338,-0.0419,-0.0463,-0.0489,-0.0499,-0.0462,-0.0538,-0.0532,-0.0468,-0.039,-0.0365,-0.0343,-0.0609,-0.0609,-0.0609,0,0,0.0104,0.0082,0.0092,0.0064,0.002,-0.0019,-0.0022,-0.0089,-0.0116,-0.017,-0.023,-0.0273,-0.0388,-0.0413,-0.0447,-0.0448,-0.0441,-0.0499,-0.0379,-0.0305,-0.0281,-0.026,-0.0216,-0.0192,-0.0488,-0.0488,-0.0488,0,0.0127,0.0144,0.0086,0.0089,0.0091,0.0004,0.0026,-0.0027,-0.0108,-0.009,-0.017,-0.0252,-0.0348,-0.0329,-0.0354,-0.0425,-0.0389,-0.0391,-0.0287,-0.0265,-0.0246,-0.0205,-0.0179,-0.0483,-0.0483,-0.0484,-0.0484,0,0.017,0.0187,0.0192,0.0177,0.0159,0.0163,0.0099,0.0081,0.0029,-0.0002,-0.0011,-0.0129,-0.0141,-0.0221,-0.0301,-0.0216,-0.024,-0.0288,-0.0279,-0.0212,-0.0178,-0.0153,-0.0475,-0.0477,-0.0478,-0.048,0,0,0.0231,0.0228,0.0234,0.0286,0.0222,0.0238,0.0217,0.0224,0.0296,0.0169,0.0273,0.0107,0.0092,0.0055,-0.0036,-0.0014,0.0092,-0.0088,-0.0086,0.0001,0.026,0.0168,0.0185,0.0077,0.0082,0.0086,0.0219,0,0.0298,0.0372,0.0326,0.0409,0.0466,0.0401,0.0422,0.0413,0.0385,0.045,0.0357,0.0388,0.0183,0.021,0.0196,0.0145,0.0168,0.0061,0.0146,0.0149,0.0098,0.0215,0.0147,0.0255,0.0243,0.0247,0.025,0,0.0385,0.0432,0.0539,0.0627,0.0645,0.0671,0.0774,0.0776,0.0806,0.0798,0.0806,0.0744,0.0756,0.0573,0.0558,0.0507,0.0408,0.0332,0.0336,0.0249,0.0106,0.0187,0.03,0.0019,0.0288,0.0285,0.0282,0,0.0559,0.0606,0.0726,0.0743,0.0792,0.0858,0.0882,0.0916,0.0983,0.1067,0.1153,0.1123,0.1166,0.1055,0.082,0.0742,0.0805,0.0685,0.0509,0.0499,0.0462,0.0441,0.0364,0.0711,0.0711,0.0711,0.071,0,0.0703,0.0808,0.0835,0.0917,0.1075,0.1057,0.1235,0.1246,0.1341,0.1479,0.1381,0.1494,0.1295,0.1252,0.101,0.0849,0.0963,0.0597,0.056,0.0487,0.0467,0.0233,0.0072,0.0716,0.0714,0.0713,0.0713,0,0.0898,0.0912,0.106,0.1139,0.1175,0.1299,0.1414,0.1542,0.1614,0.1806,0.1857,0.1853,0.1809,0.1554,0.1404,0.1128,0.08,0.0847,0.0749,0.0697,0.0254,0.0102,0.0074,-0.003,0.0745,0.0744,0.0743,0,0.1009,0.1113,0.1224,0.1297,0.1338,0.1493,0.1596,0.1673,0.1799,0.2006,0.2122,0.2162,0.2171,0.1907,0.1457,0.1106,0.0812,0.079,0.0609,0.0284,0.0089,-0.0011,-0.0103,0.0593,0.0591,0.0589,0.0588,0,0.1196,0.1231,0.1315,0.1466,0.1586,0.1734,0.1888,0.203,0.2155,0.2334,0.2535,0.2586,0.2323,0.1965,0.1458,0.1149,0.0587,0.0743,0.047,0.0043,-0.012,-0.0259,0.0416,0.0573,0.0575,0.0576,0.0576,0.0577,0.129,0.1367,0.1453,0.1599,0.1739,0.1929,0.2084,0.2261,0.2497,0.2764,0.2804,0.2939,0.2391,0.1704,0.1262,0.042,0.0475,0.0149,0.002,-0.0027,-0.021,0.0411,0.0467,0.0468,0.0468,0.0469,0.0469,0,0.1356,0.1426,0.1569,0.173,0.1903,0.1969,0.2234,0.2409,0.2689,0.2946,0.3124,0.293,0.2214,0.1483,0.0357,-0.0207,-0.0406,-0.0504,-0.0667,-0.0705,-0.0088,-0.0188,-0.0348,-0.0347,-0.0347,-0.0347,-0.0347,-0.0346,0.1379,0.1489,0.156,0.1816,0.1958,0.221,0.2372,0.2641,0.2872,0.3165,0.3265,0.331,0.2662,0.0717,-0.0596,-0.0876,-0.1236,-0.1323,-0.1445,-0.1096,-0.1046,-0.0998,-0.113,-0.1484,-0.1485,-0.2018,-0.2024,-0.2029]}],[{"header":{"parameterUnit":"m.s-1","parameterCategory":2,"la1":30.2991,"la2":30.254,"lo1":-89.0895,"lo2":-89.0444,"dy":0.0017,"dx":0.0017,"nx":28,"ny":28,"refTime":"2025-05-29T21:00:00:Z","depth":"2","parameterNumber":2,"parameterNumberName":"U-component_of_CURRENTS"},"data":[0,0,0,0,0,0,0,0,0,0,0,0,0,0,0,0,0,0,0,0,0,0,0,0,0,0,0,0,0,0,0,0,0,0,0,0,0,0,0,0,0,0,0,0,0,0,0,0,0,0,0,0,0,0,0,0,0,0,0.2815,0.2815,0,0.2874,0.2875,0.2875,0.2895,0.2895,0.2895,0.2895,0.2912,0.2913,0.2913,0,0,0,0,0,0,0,0,0,0,0,0,0,0.2724,0.2725,0.2815,0.2815,0.2816,0.2874,0.2875,0.2876,0.2895,0.2895,0.2895,0.2895,0.2912,0.2913,0.2913,0,0,0,0,0,0,0,0,0,0,0,0,0,0.277,0.2726,0.2814,0.2834,0.2837,0.2874,0.2875,0.2876,0.2895,0.2895,0.2895,0.2895,0.2912,0.2913,0.2914,0.2922,0,0,0.2916,0.2917,0,0,0,0,0,0,0,0,0.2767,0.2773,0.283,0.2833,0.2836,0.2878,0.2849,0.289,0.2895,0.2871,0.2895,0.2894,0.2898,0.29,0.291,0.2923,0.2924,0.2916,0.2917,0.2917,0.2917,0,0,0,0,0,0,0,0.2764,0.277,0.2837,0.2831,0.2835,0.2842,0.2848,0.2857,0.2883,0.2873,0.2875,0.2884,0.2899,0.2909,0.2911,0.2924,0.2916,0.2917,0.2918,0.2918,0.2982,0.2983,0,0,0,0,0,0,0.276,0.2768,0.2835,0.2839,0.2802,0.2844,0.2851,0.2864,0.2884,0.2888,0.2885,0.2885,0.2908,0.291,0.2911,0.3034,0.2917,0.2918,0.2919,0.2981,0.2982,0.2983,0,0,0,0,0,0,0.2758,0.2765,0.2832,0.2805,0.2815,0.2846,0.286,0.2865,0.2894,0.2893,0.2896,0.2911,0.2908,0.291,0.2946,0.303,0.2918,0.2919,0.2979,0.2981,0.2983,0.3208,0,0,0,0,0,0,0.2755,0.2764,0.2769,0.2805,0.2816,0.2871,0.2861,0.2866,0.2899,0.2901,0.2916,0.2917,0.2908,0.2945,0.2947,0.3029,0.292,0.2978,0.298,0.2982,0.3199,0.3217,0.3232,0,0,0,0,0,0.2751,0.2759,0.2769,0.2777,0.2823,0.2872,0.2879,0.2899,0.2901,0.2923,0.2938,0.2917,0.296,0.2948,0.295,0.3034,0.2977,0.2979,0.2982,0.3191,0.3213,0.3232,0,0,0,0,0,0,0.2721,0.2763,0.2775,0.2794,0.2839,0.2876,0.2902,0.2913,0.2943,0.2947,0.2942,0.2944,0.3007,0.2969,0.2955,0.3048,0.2961,0.2964,0.3119,0.314,0.3156,0.3233,0.2921,0,0,0,0,0,0.2718,0.2738,0.2784,0.2805,0.2834,0.2873,0.2894,0.2911,0.2943,0.2956,0.2967,0.2976,0.3016,0.3036,0.304,0.3098,0.3094,0.3142,0.3159,0.3174,0.3232,0.3331,0.3366,0.2992,0.2992,0.2992,0,0,0.271,0.2739,0.2749,0.28,0.2842,0.2899,0.2887,0.2935,0.3003,0.2952,0.3037,0.3035,0.3037,0.3112,0.3135,0.3098,0.3257,0.3177,0.3192,0.3242,0.3338,0.3376,0.3409,0.2994,0.2993,0.2993,0,0,0.2729,0.2744,0.2782,0.2822,0.2886,0.2919,0.294,0.2992,0.3045,0.3101,0.3109,0.3182,0.3174,0.3258,0.3285,0.3393,0.3339,0.3346,0.3519,0.3614,0.3649,0.3679,0.3652,0.3678,0.3364,0.3364,0.3364,0,0.2724,0.2783,0.2801,0.2858,0.292,0.2938,0.3021,0.307,0.3125,0.3209,0.3141,0.3264,0.3273,0.3455,0.3499,0.3451,0.343,0.3456,0.3647,0.3677,0.3705,0.367,0.3697,0.3375,0.3374,0.3373,0.3372,0,0.2791,0.2834,0.2869,0.2957,0.3018,0.3086,0.3169,0.3222,0.3262,0.3335,0.3488,0.3508,0.3594,0.3605,0.3595,0.3805,0.3696,0.3659,0.3619,0.3758,0.3708,0.3732,0.3391,0.3387,0.3384,0.3381,0,0,0.2793,0.2901,0.2912,0.2974,0.3088,0.3139,0.3273,0.3433,0.3534,0.3597,0.3762,0.3884,0.3906,0.3939,0.3944,0.4049,0.4212,0.3947,0.3947,0.396,0.4331,0.4175,0.4183,0.4204,0.4211,0.4216,0.4195,0,0.2859,0.2972,0.3033,0.3156,0.3231,0.3312,0.343,0.3566,0.3668,0.3803,0.3934,0.4053,0.4031,0.4067,0.4194,0.4196,0.4294,0.4215,0.416,0.4157,0.4041,0.4216,0.3911,0.3863,0.4217,0.4221,0.4224,0,0.2921,0.2989,0.3128,0.3268,0.3317,0.3408,0.3614,0.3716,0.393,0.4013,0.4191,0.4237,0.4445,0.4359,0.4525,0.4458,0.4443,0.4433,0.443,0.4245,0.4052,0.379,0.3891,0.4262,0.4259,0.4257,0.4254,0,0.2914,0.306,0.3179,0.3226,0.3378,0.3495,0.3604,0.381,0.3921,0.4165,0.424,0.4464,0.4536,0.4616,0.4606,0.4569,0.4714,0.4642,0.4493,0.4473,0.419,0.4136,0.48,0.48,0.48,0.48,0.48,0,0.2962,0.3058,0.3184,0.3232,0.3369,0.3512,0.3695,0.3813,0.4028,0.4162,0.4352,0.4446,0.4611,0.4684,0.4672,0.4646,0.4768,0.4581,0.4514,0.4242,0.4196,0.4527,0.4496,0.4799,0.4799,0.48,0.48,0,0.295,0.3042,0.3126,0.3285,0.3356,0.3446,0.3689,0.3798,0.4012,0.4178,0.4253,0.4471,0.4568,0.4663,0.4757,0.4693,0.4693,0.465,0.4264,0.4157,0.4354,0.4334,0.4493,0.4489,0.4485,0.4482,0.4479,0,0.2977,0.3017,0.3093,0.3137,0.3232,0.3402,0.3508,0.3751,0.3857,0.4145,0.4186,0.4389,0.4451,0.4529,0.451,0.4485,0.4606,0.4155,0.4094,0.4433,0.4351,0.4336,0.4321,0.375,0.3741,0.3734,0.3729,0,0.2988,0.298,0.3002,0.3035,0.3144,0.3264,0.3449,0.3517,0.3774,0.388,0.4026,0.4119,0.4263,0.4127,0.4132,0.407,0.4143,0.4012,0.4532,0.3882,0.3734,0.3651,0.3662,0.3668,0.3674,0.3678,0.3682,0.3684,0.294,0.2914,0.2884,0.2914,0.3024,0.3116,0.3155,0.3302,0.3383,0.348,0.3691,0.3701,0.3818,0.3659,0.3568,0.3533,0.3796,0.3632,0.3653,0.3681,0.3608,0.3464,0.3325,0.3329,0.3332,0.3335,0.3338,0,0.2809,0.2811,0.2808,0.2802,0.2825,0.2977,0.3081,0.3028,0.3007,0.3138,0.3194,0.2979,0.2916,0.3061,0.2923,0.2923,0.2899,0.2811,0.277,0.2834,0.289,0.2776,0.2271,0.2268,0.2264,0.2261,0,0,0.2763,0.2671,0.2631,0.2586,0.2649,0.266,0.2686,0.2638,0.2652,0.2479,0.2477,0.2682,0.2915,0.2512,0.2508,0.2373,0.2569,0.228,0.3143,0.3156,0.3206,0.338,0.3279,0,0,0,0,0]},{"header":{"parameterUnit":"m.s-1","parameterCategory":2,"la1":30.2991,"la2":30.254,"lo1":-89.0895,"lo2":-89.0444,"dy":0.0017,"dx":0.0017,"nx":28,"ny":28,"refTime":"2025-05-29T21:00:00:Z","depth":"2","parameterNumber":3,"parameterNumberName":"V-component_of_CURRENTS"},"data":[0,0,0,0,0,0,0,0,0,0,0,0,0,0,0,0,0,0,0,0,0,0,0,0,0,0,0,0,0,0,0,0,0,0,0,0,0,0,0,0,0,0,0,0,0,0,0,0,0,0,0,0,0,0,0,0,0,0,-0.0065,-0.0066,0,-0.0161,-0.0162,-0.0164,-0.0232,-0.0233,-0.0233,-0.0233,-0.0353,-0.0356,-0.0359,0,0,0,0,0,0,0,0,0,0,0,0,0,-0.0012,-0.0012,-0.0065,-0.0066,-0.0067,-0.0161,-0.0162,-0.0164,-0.0232,-0.0233,-0.0233,-0.0233,-0.0352,-0.0356,-0.0359,0,0,0,0,0,0,0,0,0,0,0,0,0,-0.0066,-0.0012,-0.0065,-0.011,-0.0115,-0.016,-0.0162,-0.0164,-0.0232,-0.0233,-0.0233,-0.0233,-0.0351,-0.0356,-0.036,-0.0378,0,0,-0.0373,-0.0375,0,0,0,0,0,0,0,0,-0.0063,-0.0069,-0.0102,-0.0107,-0.0112,-0.0182,-0.0188,-0.0236,-0.0232,-0.0191,-0.0233,-0.0234,-0.0296,-0.0305,-0.0326,-0.0384,-0.0389,-0.0374,-0.0376,-0.0378,-0.038,0,0,0,0,0,0,0,-0.0059,-0.0065,-0.0106,-0.0103,-0.0109,-0.015,-0.0158,-0.0198,-0.0243,-0.0194,-0.0199,-0.0205,-0.03,-0.0322,-0.033,-0.0391,-0.0374,-0.0378,-0.038,-0.0382,-0.0447,-0.0446,0,0,0,0,0,0,-0.0037,-0.0061,-0.0103,-0.0108,-0.0085,-0.015,-0.0159,-0.0162,-0.0242,-0.0253,-0.0204,-0.0207,-0.0314,-0.0324,-0.0334,-0.0363,-0.0378,-0.0382,-0.0385,-0.0448,-0.0447,-0.0446,0,0,0,0,0,0,-0.0036,-0.004,-0.0099,-0.0085,-0.0095,-0.0149,-0.0153,-0.0163,-0.0185,-0.0248,-0.0261,-0.0214,-0.0315,-0.0328,-0.0366,-0.0368,-0.0384,-0.0388,-0.0449,-0.0448,-0.0446,-0.042,0,0,0,0,0,0,-0.0034,-0.0039,-0.0034,-0.0083,-0.0095,-0.0114,-0.0152,-0.0165,-0.0187,-0.0192,-0.0261,-0.0273,-0.0316,-0.0359,-0.0371,-0.0375,-0.0392,-0.045,-0.0448,-0.0447,-0.0422,-0.0418,-0.0414,0,0,0,0,0,-0.0031,-0.0017,-0.0034,-0.0039,-0.0087,-0.0113,-0.0122,-0.0165,-0.0186,-0.0188,-0.0239,-0.0271,-0.0356,-0.0363,-0.0376,-0.0381,-0.0451,-0.0449,-0.0447,-0.0423,-0.0418,-0.0414,0,0,0,0,0,0,0.0005,-0.0024,-0.0043,-0.004,-0.0069,-0.0123,-0.0128,-0.0159,-0.0201,-0.0206,-0.0271,-0.0286,-0.0317,-0.0345,-0.0351,-0.0389,-0.0404,-0.0405,-0.0381,-0.0377,-0.0373,-0.0347,-0.0395,0,0,0,0,0,0.0018,0.002,-0.0018,-0.0017,-0.0026,-0.0077,-0.0093,-0.012,-0.0162,-0.0182,-0.0233,-0.0278,-0.0318,-0.0344,-0.0378,-0.0408,-0.0424,-0.0413,-0.0409,-0.0406,-0.039,-0.0398,-0.0393,-0.0439,-0.0439,-0.0439,0,0,0.0031,0.0016,0.0016,-0.0009,-0.0036,-0.0037,-0.0088,-0.0103,-0.0114,-0.0188,-0.0219,-0.0267,-0.032,-0.0353,-0.0368,-0.038,-0.0406,-0.0403,-0.0401,-0.0386,-0.0395,-0.0391,-0.0387,-0.0438,-0.0438,-0.0438,0,0,0.0067,0.0048,0.0065,0.0051,0.0025,-0.0006,-0.0004,-0.0053,-0.0086,-0.0117,-0.0174,-0.0221,-0.0277,-0.0327,-0.0357,-0.0348,-0.0381,-0.0352,-0.0324,-0.0332,-0.0329,-0.0326,-0.0366,-0.0367,-0.0356,-0.0356,-0.0356,0,0.0083,0.0099,0.0064,0.008,0.0074,0.0016,0.0032,-0.0007,-0.0065,-0.0088,-0.0112,-0.0203,-0.0264,-0.0311,-0.0318,-0.0343,-0.0353,-0.0345,-0.0328,-0.0325,-0.0323,-0.0365,-0.0366,-0.0355,-0.0355,-0.0355,-0.0355,0,0.0133,0.0145,0.0155,0.0155,0.0144,0.0149,0.0101,0.008,0.0036,-0.001,-0.0061,-0.0145,-0.0193,-0.023,-0.0281,-0.0298,-0.0316,-0.0321,-0.0342,-0.0316,-0.0363,-0.0364,-0.0352,-0.0353,-0.0353,-0.0354,0,0,0.0167,0.0187,0.019,0.0198,0.0186,0.0175,0.017,0.0136,0.0118,0.0058,0.0032,-0.0063,-0.0108,-0.0142,-0.0215,-0.0248,-0.0275,-0.0275,-0.0276,-0.032,-0.0306,-0.0349,-0.0356,-0.0268,-0.0267,-0.0267,-0.0356,0,0.0212,0.0252,0.0255,0.0284,0.0294,0.0263,0.0256,0.0217,0.0166,0.0126,0.0038,-0.001,-0.0075,-0.0108,-0.0145,-0.0233,-0.0271,-0.0251,-0.0319,-0.0322,-0.0366,-0.0356,-0.0307,-0.0384,-0.0358,-0.0358,-0.0359,0,0.0259,0.0276,0.0317,0.0331,0.0334,0.0341,0.0316,0.0305,0.0244,0.0209,0.0163,0.0097,0.0026,-0.0025,-0.0134,-0.011,-0.0197,-0.0271,-0.0276,-0.0319,-0.0366,-0.0399,-0.0388,-0.0362,-0.0361,-0.0361,-0.0361,0,0.027,0.0317,0.0345,0.0353,0.0363,0.0369,0.0364,0.0321,0.0302,0.0262,0.0247,0.0176,0.0119,0.0047,-0.011,-0.0107,-0.0237,-0.0248,-0.0374,-0.038,-0.0353,-0.0357,-0.0314,-0.0314,-0.0314,-0.0314,-0.0314,0,0.0298,0.0307,0.035,0.0359,0.0377,0.0384,0.0382,0.0372,0.0352,0.0353,0.0288,0.0281,0.0139,0.0042,-0.0073,-0.0231,-0.0199,-0.0364,-0.0395,-0.0347,-0.0349,-0.0332,-0.0332,-0.0317,-0.0316,-0.0316,-0.0315,0,0.0259,0.0297,0.0333,0.0375,0.0379,0.0384,0.0391,0.0406,0.0386,0.0394,0.0394,0.0337,0.0264,0.009,-0.0064,-0.0206,-0.034,-0.0414,-0.0371,-0.0394,-0.0489,-0.0487,-0.0532,-0.0534,-0.0536,-0.0537,-0.0538,0,0.0216,0.0239,0.0333,0.0366,0.0376,0.0385,0.0411,0.0411,0.0461,0.045,0.0494,0.0397,0.042,0.0152,-0.0103,-0.0315,-0.0357,-0.0483,-0.0468,-0.048,-0.0506,-0.0501,-0.0497,-0.0438,-0.0439,-0.0439,-0.0439,0,0.0139,0.0204,0.0273,0.0375,0.042,0.045,0.0507,0.0555,0.0599,0.0667,0.0783,0.0798,0.0507,0.0331,-0.0066,-0.0223,-0.0434,-0.0497,-0.0501,-0.0392,-0.0399,-0.0422,-0.042,-0.0441,-0.0441,-0.0441,-0.0441,-0.0441,0.0113,0.016,0.0318,0.0417,0.0471,0.0575,0.0663,0.0787,0.0938,0.1084,0.1036,0.1088,0.0715,0.0315,-0.0028,-0.0429,-0.0414,-0.0543,-0.0539,-0.0535,-0.0509,-0.0518,-0.0581,-0.0581,-0.0582,-0.0582,-0.0583,0,0.0139,0.0217,0.0333,0.0514,0.0633,0.0615,0.0786,0.0936,0.1215,0.1298,0.1423,0.1148,0.0875,0.046,-0.0114,-0.0471,-0.0484,-0.0584,-0.051,-0.0506,-0.0503,-0.0473,-0.0537,-0.0537,-0.0538,-0.0539,0,0,0.0159,0.0314,0.0423,0.0659,0.0746,0.0924,0.1042,0.1274,0.1425,0.1599,0.162,0.1519,0.102,0.0619,0.0127,-0.019,-0.0263,-0.026,-0.0262,-0.0112,-0.0104,-0.0451,-0.0398,0,0,0,0,0]}],[{"header":{"parameterUnit":"m.s-1","parameterCategory":2,"la1":30.2991,"la2":30.254,"lo1":-89.0895,"lo2":-89.0444,"dy":0.0017,"dx":0.0017,"nx":28,"ny":28,"refTime":"2025-05-29T21:00:00:Z","depth":"4","parameterNumber":2,"parameterNumberName":"U-component_of_CURRENTS"},"data":[0,0,0,0,0,0,0,0,0,0,0,0,0,0,0,0,0,0,0,0,0,0,0,0,0,0,0,0,0,0,0,0,0,0,0,0,0,0,0,0,0,0,0,0,0,0,0,0,0,0,0,0,0,0,0,0,0,0,0.1585,0.1586,0,0.1661,0.1662,0.1662,0.1725,0.1726,0.1726,0.1727,0.1792,0.1793,0.1794,0,0,0,0,0,0,0,0,0,0,0,0,0,0.1504,0.1505,0.1585,0.1586,0.1587,0.1661,0.1662,0.1662,0.1725,0.1726,0.1727,0.1728,0.1792,0.1793,0.1794,0,0,0,0,0,0,0,0,0,0,0,0,0,0.1553,0.1505,0.1585,0.1629,0.1634,0.1661,0.1662,0.1663,0.1724,0.1726,0.1727,0.1728,0.1791,0.1793,0.1794,0.1776,0,0,0.1798,0.1799,0,0,0,0,0,0,0,0,0.155,0.1556,0.1621,0.1626,0.1631,0.1687,0.1657,0.1701,0.1724,0.1687,0.1727,0.1729,0.1756,0.1761,0.1769,0.1779,0.1782,0.1798,0.1799,0.18,0.18,0,0,0,0,0,0,0,0.1547,0.1553,0.1613,0.1622,0.1629,0.1649,0.1657,0.1666,0.1712,0.1691,0.1696,0.1708,0.1759,0.1767,0.1771,0.1783,0.1798,0.18,0.18,0.1801,0.1895,0.1897,0,0,0,0,0,0,0.154,0.155,0.161,0.1615,0.1596,0.1649,0.1658,0.1666,0.1712,0.1721,0.1707,0.171,0.1764,0.1769,0.1773,0.1847,0.18,0.1801,0.1802,0.1894,0.1896,0.1898,0,0,0,0,0,0,0.1538,0.1545,0.1607,0.1586,0.1596,0.1649,0.1657,0.1667,0.1716,0.1725,0.1733,0.1751,0.1766,0.1771,0.1821,0.1847,0.1802,0.1803,0.1892,0.1894,0.1897,0.1935,0,0,0,0,0,0,0.1535,0.1543,0.1562,0.1586,0.1597,0.164,0.1657,0.1667,0.1719,0.1726,0.1765,0.177,0.1767,0.1819,0.1822,0.1848,0.1804,0.189,0.1893,0.1896,0.1932,0.1939,0.1945,0,0,0,0,0,0.1532,0.1546,0.1562,0.1571,0.1616,0.164,0.1648,0.1689,0.1721,0.1739,0.1779,0.1771,0.1842,0.1822,0.1825,0.1851,0.1888,0.1892,0.1896,0.1929,0.1937,0.1944,0,0,0,0,0,0,0.1522,0.1554,0.1573,0.1598,0.1626,0.1652,0.1682,0.171,0.1756,0.1775,0.179,0.1798,0.1851,0.1849,0.1827,0.189,0.1864,0.1869,0.1888,0.1896,0.1902,0.1916,0.1805,0,0,0,0,0,0.1526,0.1549,0.1578,0.1602,0.162,0.1659,0.1684,0.1708,0.1744,0.1769,0.18,0.1833,0.1861,0.188,0.19,0.1931,0.1958,0.1952,0.1958,0.1964,0.1979,0.2074,0.2091,0.191,0.191,0.191,0,0,0.1529,0.1553,0.1567,0.1603,0.1633,0.1656,0.1678,0.1719,0.1754,0.1765,0.1835,0.1859,0.1877,0.1917,0.194,0.1923,0.2023,0.1969,0.1973,0.1985,0.208,0.2097,0.2113,0.1913,0.1912,0.1912,0,0,0.1532,0.1569,0.1585,0.1613,0.166,0.1678,0.1699,0.1745,0.1787,0.1841,0.1866,0.1912,0.1953,0.1971,0.1984,0.2039,0.2057,0.205,0.2089,0.2181,0.2197,0.2211,0.2237,0.2254,0.2049,0.2049,0.2049,0,0.1535,0.1562,0.1594,0.1619,0.165,0.1692,0.1717,0.1757,0.1818,0.1847,0.1871,0.1965,0.1976,0.2031,0.2055,0.2052,0.2099,0.2053,0.219,0.2205,0.2219,0.2243,0.2261,0.2051,0.2051,0.2051,0.2051,0,0.154,0.158,0.1596,0.1639,0.1671,0.1704,0.1753,0.1809,0.1865,0.1885,0.1972,0.2016,0.2077,0.2081,0.2087,0.2187,0.2183,0.219,0.2169,0.224,0.226,0.2278,0.2055,0.2054,0.2053,0.2053,0,0,0.1497,0.1581,0.1593,0.1625,0.1691,0.1711,0.1785,0.1837,0.1904,0.1957,0.2035,0.2091,0.2133,0.2155,0.2184,0.2252,0.2372,0.2275,0.2279,0.2298,0.2556,0.2377,0.2378,0.2427,0.2431,0.2434,0.2518,0,0.1496,0.1545,0.159,0.1645,0.1675,0.1749,0.1807,0.1863,0.1943,0.2025,0.207,0.2155,0.2156,0.2226,0.2293,0.2364,0.2428,0.2347,0.2488,0.2491,0.2322,0.2397,0.2448,0.2531,0.2535,0.2538,0.254,0,0.1474,0.1522,0.1576,0.1663,0.1684,0.1729,0.1853,0.1914,0.2018,0.2092,0.2185,0.2235,0.2337,0.2351,0.2507,0.247,0.2529,0.2566,0.2571,0.2407,0.2346,0.2455,0.2573,0.257,0.2568,0.2566,0.2564,0,0.1416,0.1503,0.1552,0.1584,0.1688,0.1749,0.1812,0.1927,0.1989,0.2162,0.223,0.2352,0.2446,0.2551,0.2617,0.2608,0.2768,0.2757,0.2637,0.2623,0.274,0.2725,0.2887,0.2887,0.2887,0.2887,0.2886,0,0.1374,0.1415,0.1542,0.1575,0.1629,0.1729,0.1825,0.192,0.2062,0.2121,0.2271,0.2354,0.2521,0.2606,0.266,0.2684,0.2812,0.2657,0.2649,0.2747,0.2732,0.2751,0.2734,0.289,0.2889,0.2888,0.2888,0,0.1276,0.1368,0.1426,0.1565,0.1601,0.1644,0.1786,0.1859,0.2034,0.2142,0.2203,0.2382,0.2523,0.262,0.2783,0.2722,0.2771,0.2749,0.2814,0.2806,0.255,0.2535,0.2633,0.2628,0.2624,0.262,0.2617,0,0.1213,0.1245,0.1386,0.1419,0.1484,0.1579,0.1636,0.1814,0.1906,0.2128,0.2157,0.2344,0.2452,0.2506,0.2641,0.272,0.2704,0.2691,0.2649,0.255,0.2534,0.2525,0.2516,0.261,0.2608,0.2607,0.2606,0,0.1095,0.1172,0.1234,0.1309,0.1378,0.1434,0.1554,0.1599,0.1818,0.1978,0.2089,0.2171,0.2306,0.2416,0.2492,0.254,0.2678,0.2644,0.2654,0.2615,0.2523,0.2509,0.2505,0.2591,0.2593,0.2594,0.2595,0,0.1001,0.1014,0.1122,0.1178,0.125,0.1288,0.1361,0.1488,0.1587,0.1861,0.1884,0.209,0.227,0.2322,0.2382,0.2424,0.2413,0.2341,0.2366,0.2385,0.2268,0.2113,0.2063,0,0,0,0,0,0.0898,0.0929,0.0975,0.1042,0.1116,0.1166,0.1306,0.1407,0.162,0.165,0.1776,0.1898,0.202,0.2118,0.2123,0.2284,0.2413,0.2276,0.2339,0.2505,0.2523,0.2411,0,0,0,0,0,0,0.0827,0.0879,0.0937,0.0937,0.096,0.1023,0.1111,0.1247,0.1301,0.1521,0.1605,0.1773,0.1926,0.2002,0.208,0.2115,0.2115,0.2412,0.2407,0.2495,0.2511,0.2526,0.2416,0,0,0,0,0]},{"header":{"parameterUnit":"m.s-1","parameterCategory":2,"la1":30.2991,"la2":30.254,"lo1":-89.0895,"lo2":-89.0444,"dy":0.0017,"dx":0.0017,"nx":28,"ny":28,"refTime":"2025-05-29T21:00:00:Z","depth":"4","parameterNumber":3,"parameterNumberName":"V-component_of_CURRENTS"},"data":[0,0,0,0,0,0,0,0,0,0,0,0,0,0,0,0,0,0,0,0,0,0,0,0,0,0,0,0,0,0,0,0,0,0,0,0,0,0,0,0,0,0,0,0,0,0,0,0,0,0,0,0,0,0,0,0,0,0,0.0057,0.0056,0,-0.0,-0.0001,-0.0002,-0.0047,-0.0048,-0.0048,-0.0048,-0.0117,-0.0119,-0.012,0,0,0,0,0,0,0,0,0,0,0,0,0,0.0076,0.0076,0.0057,0.0056,0.0056,-0.0,-0.0001,-0.0002,-0.0047,-0.0048,-0.0048,-0.0048,-0.0117,-0.0118,-0.012,0,0,0,0,0,0,0,0,0,0,0,0,0,0.0047,0.0076,0.0057,0.0027,0.0024,-0.0,-0.0001,-0.0002,-0.0047,-0.0048,-0.0048,-0.0049,-0.0116,-0.0118,-0.012,-0.0125,0,0,-0.0127,-0.0128,0,0,0,0,0,0,0,0,0.0048,0.0046,0.0032,0.0029,0.0026,-0.0016,-0.002,-0.0043,-0.0047,-0.0021,-0.0048,-0.0049,-0.0083,-0.0088,-0.01,-0.0128,-0.0131,-0.0128,-0.0129,-0.013,-0.0131,0,0,0,0,0,0,0,0.0051,0.0048,0.0033,0.0032,0.0028,-0.0001,-0.0005,-0.0025,-0.005,-0.0024,-0.0027,-0.0031,-0.0085,-0.0097,-0.0102,-0.0132,-0.0128,-0.013,-0.0131,-0.0132,-0.0149,-0.0148,0,0,0,0,0,0,0.0064,0.005,0.0035,0.0031,0.0038,-0.0,-0.0005,-0.0003,-0.005,-0.0057,-0.003,-0.0033,-0.0093,-0.0099,-0.0104,-0.0085,-0.013,-0.0132,-0.0133,-0.015,-0.0149,-0.0148,0,0,0,0,0,0,0.0064,0.0063,0.0037,0.004,0.0035,0.0001,0.0003,-0.0004,-0.0015,-0.0054,-0.0062,-0.0034,-0.0094,-0.0101,-0.0113,-0.009,-0.0133,-0.0135,-0.0151,-0.015,-0.0148,-0.0065,0,0,0,0,0,0,0.0065,0.0064,0.0067,0.0041,0.0035,0.0038,0.0003,-0.0005,-0.0016,-0.002,-0.006,-0.0067,-0.0095,-0.0109,-0.0115,-0.0093,-0.0137,-0.0152,-0.015,-0.0149,-0.0069,-0.0061,-0.0054,0,0,0,0,0,0.0066,0.008,0.0068,0.0066,0.0042,0.0039,0.0034,0.0006,-0.0015,-0.0008,-0.0039,-0.0066,-0.0102,-0.011,-0.0118,-0.0096,-0.0153,-0.0151,-0.0149,-0.0072,-0.0063,-0.0055,0,0,0,0,0,0,0.0088,0.0076,0.0062,0.0071,0.0062,0.0033,0.0034,0.0012,-0.0008,-0.0015,-0.0057,-0.0065,-0.0066,-0.0093,-0.0101,-0.0096,-0.0131,-0.013,-0.007,-0.0061,-0.0054,-0.0065,-0.0139,0,0,0,0,0,0.0096,0.0104,0.0087,0.0094,0.0093,0.0063,0.0055,0.0039,0.0018,0.0007,-0.0022,-0.0049,-0.0063,-0.0072,-0.0091,-0.009,-0.0155,-0.008,-0.0073,-0.0066,-0.008,-0.0172,-0.0175,-0.0141,-0.0141,-0.0141,0,0,0.0106,0.01,0.0104,0.0099,0.0087,0.0098,0.0058,0.0057,0.0063,0.0004,0.0003,-0.0025,-0.0058,-0.0054,-0.0057,-0.0074,-0.0104,-0.0064,-0.0058,-0.0075,-0.017,-0.0174,-0.0178,-0.014,-0.014,-0.014,0,0,0.0136,0.0127,0.0146,0.0147,0.0139,0.0124,0.0128,0.0106,0.0095,0.0092,0.0053,0.0033,0.0014,-0.0009,-0.0022,0.0012,-0.0062,0.0017,0.0045,-0.0043,-0.0047,-0.0052,-0.0115,-0.0126,0.0021,0.0021,0.0021,0,0.0147,0.0165,0.0152,0.0173,0.0174,0.0142,0.0162,0.0154,0.0129,0.0114,0.0106,0.0052,0.0033,0.0017,0.0037,0.0028,-0.0033,0.0017,-0.0036,-0.0042,-0.0048,-0.0112,-0.0125,0.0025,0.0025,0.0024,0.0024,0,0.0196,0.0207,0.0221,0.0235,0.0239,0.0251,0.0242,0.0236,0.0216,0.0193,0.0169,0.0132,0.0092,0.0098,0.0083,0.0042,0.0012,-0.0017,-0.0061,-0.0047,-0.0114,-0.0129,0.0031,0.003,0.0029,0.0028,0,0,0.0222,0.0248,0.0251,0.0264,0.027,0.0278,0.0293,0.0283,0.0276,0.025,0.0224,0.021,0.0165,0.0147,0.0117,0.0054,-0.0018,0.0008,0.0001,-0.0058,-0.0208,-0.0156,-0.0169,-0.0066,-0.0069,-0.0071,-0.0228,0,0.0258,0.0303,0.0307,0.0345,0.0363,0.0345,0.0362,0.0349,0.0324,0.0294,0.024,0.0213,0.0194,0.0174,0.0108,0.0005,-0.006,0.0027,-0.021,-0.0216,-0.0177,-0.0186,-0.008,-0.024,-0.0243,-0.0246,-0.0248,0,0.0297,0.032,0.0368,0.0386,0.0394,0.0416,0.0411,0.0425,0.0379,0.0355,0.03,0.0245,0.0169,0.0144,-0.0041,0.0011,-0.009,-0.0172,-0.0181,-0.018,-0.0195,-0.0264,-0.0277,-0.0275,-0.0273,-0.0271,-0.0269,0,0.0313,0.0354,0.0391,0.0403,0.0432,0.0445,0.0455,0.0436,0.0455,0.0383,0.0371,0.025,0.0206,0.0041,-0.0092,-0.0091,-0.0306,-0.0332,-0.0383,-0.0381,-0.0419,-0.0413,-0.0481,-0.0481,-0.0481,-0.048,-0.048,0,0.0341,0.037,0.0404,0.0427,0.048,0.0478,0.052,0.0507,0.0493,0.0514,0.0408,0.0384,0.0174,0.0044,-0.0109,-0.0277,-0.0325,-0.0389,-0.0425,-0.0374,-0.0361,-0.0429,-0.0421,-0.0486,-0.0485,-0.0484,-0.0483,0,0.0366,0.0384,0.0437,0.0474,0.0496,0.0538,0.0601,0.0625,0.0598,0.0614,0.0596,0.0469,0.0294,0.0097,-0.0165,-0.0267,-0.0457,-0.0503,-0.0412,-0.0438,-0.0477,-0.0462,-0.0611,-0.0611,-0.0611,-0.061,-0.061,0,0.0394,0.0422,0.0487,0.0538,0.0568,0.0632,0.0684,0.0686,0.0718,0.0678,0.0686,0.0529,0.0426,0.0103,-0.0121,-0.0426,-0.045,-0.0551,-0.0537,-0.0474,-0.0495,-0.048,-0.0467,-0.061,-0.061,-0.0609,-0.0609,0,0.0456,0.0475,0.0518,0.061,0.068,0.0765,0.0827,0.0856,0.0857,0.0833,0.0761,0.0587,0.04,0.0128,-0.0089,-0.0307,-0.0499,-0.0549,-0.0552,-0.054,-0.0474,-0.0491,-0.0478,-0.0608,-0.0609,-0.0609,-0.0609,0,0.0512,0.055,0.0599,0.0683,0.0775,0.0858,0.089,0.0916,0.0938,0.0881,0.0854,0.0635,0.0498,0.0191,-0.0018,-0.0219,-0.0283,-0.0351,-0.0366,-0.037,-0.0242,-0.0119,-0.0185,0,0,0,0,0,0.0558,0.0591,0.0672,0.075,0.0839,0.0887,0.097,0.0988,0.0981,0.0951,0.0905,0.0729,0.0413,0.0263,0.0068,-0.0027,-0.0323,-0.0262,-0.041,-0.0603,-0.0604,-0.0489,0,0,0,0,0,0,0.059,0.0653,0.067,0.0787,0.0846,0.0945,0.0998,0.1002,0.098,0.0941,0.0776,0.0682,0.0372,0.0522,0.0062,-0.0002,-0.012,-0.0417,-0.0421,-0.0602,-0.0603,-0.0604,-0.0487,0,0,0,0,0]}]]